Weather History for Grafton, ND

Change the Weather History Date:

Wednesday, January 16, 2013

  Actual Average Record
Temperature  
Mean Temperature 14 °F -  
Max Temperature 32 °F 14 °F 42 °F (1961)
Min Temperature -4 °F -3 °F -35 °F (1977)
Degree Days  
Heating Degree Days 51    
Moisture  
Dew Point -2 °F    
Average Humidity 73    
Maximum Humidity 93    
Minimum Humidity 55    
Precipitation  
Precipitation 0.00 in - - ()
Sea Level Pressure  
Sea Level Pressure 29.99 in    
Wind  
Wind Speed 20 mph (North)    
Max Wind Speed 29 mph    
Max Gust Speed 39 mph    
Visibility 9 miles    
Events Rain , Snow    
Averages and records for this station are not official NWS values.
T = Trace of Precipitation, MM = Missing Value Source: NWS Daily Summary

Daily Weather History Graph

Daily Weather History Graph

Search for Another Location

Airport:

Trip Planner

Search our weather history database for the weather conditions in past years. The results will help you decide how hot, cold, wet, or windy it might be!

Date:

Astronomy

Jan. 16, 2013 Rise Set
Actual Time 8:14 AM CST 5:04 PM CST
Civil Twilight 7:39 AM CST 5:39 PM CST
Nautical Twilight 7:00 AM CST 6:18 PM CST
Astronomical Twilight 6:23 AM CST 6:55 PM CST
Moon 10:21 AM CST (1/16) 11:30 PM CST (1/16)
Length of Visible Light 9h 59m
Length of Day
8h 49m
Waxing Crescent, 28% of the Moon is Illuminated
Jan 16
Waxing Crescent
Jan 18
First Quarter
Jan 26
Full
Feb 3
Last Quarter
Feb 10
New

Hourly Weather History & Observations

Time (CST) Temp. Windchill Dew Point Humidity Pressure Visibility Wind Dir Wind Speed Gust Speed Precip Events Conditions
12:15 AM 32.0 °F 18.4 °F 28.4 °F 87% 29.50 in 8.0 mi NNW 26.5 mph 38.0 mph N/A   Overcast
12:35 AM 28.4 °F 13.0 °F 26.6 °F 93% 29.52 in 5.0 mi North 28.8 mph 35.7 mph N/A   Overcast
12:55 AM 26.6 °F 11.1 °F 24.8 °F 93% 29.54 in 8.0 mi North 26.5 mph 33.4 mph N/A   Overcast
1:15 AM 24.8 °F 10.0 °F 23.0 °F 93% 29.56 in 10.0 mi North 21.9 mph 31.1 mph N/A   Overcast
1:35 AM 24.8 °F 10.3 °F 21.2 °F 86% 29.57 in 10.0 mi NNW 20.7 mph 28.8 mph N/A   Overcast
1:55 AM 23.0 °F 6.6 °F 19.4 °F 86% 29.60 in 10.0 mi NNW 25.3 mph 29.9 mph N/A   Overcast
2:15 AM 21.2 °F 4.2 °F 17.6 °F 86% 29.62 in 6.0 mi NNW 25.3 mph 36.8 mph N/A   Overcast
2:35 AM 19.4 °F 3.2 °F 15.8 °F 86% 29.63 in 9.0 mi NNW 20.7 mph 39.1 mph N/A   Scattered Clouds
2:55 AM 17.6 °F -0.6 °F 14.0 °F 86% 29.66 in 10.0 mi NNW 25.3 mph 34.5 mph N/A   Clear
3:15 AM 17.6 °F 0.1 °F 12.2 °F 79% 29.68 in 10.0 mi North 23.0 mph 33.4 mph N/A   Clear
3:35 AM 15.8 °F -2.3 °F 12.2 °F 86% 29.68 in 6.0 mi North 23.0 mph 27.6 mph N/A Rain Light Freezing Rain
3:55 AM 14.0 °F -3.9 °F 10.4 °F 86% 29.69 in 10.0 mi North 20.7 mph 29.9 mph N/A Rain Light Freezing Rain
4:15 AM 14.0 °F -3.0 °F 8.6 °F 79% 29.70 in 9.0 mi North 18.4 mph 25.3 mph N/A Snow Light Snow
4:35 AM 14.0 °F -1.4 °F 8.6 °F 79% 29.71 in 8.0 mi North 15.0 mph - N/A Rain Light Freezing Rain
4:55 AM 14.0 °F -2.5 °F 8.6 °F 79% 29.73 in 10.0 mi North 17.3 mph 23.0 mph N/A   Scattered Clouds
5:15 AM 12.2 °F -4.3 °F 8.6 °F 85% 29.73 in 10.0 mi NNW 16.1 mph 21.9 mph N/A   Scattered Clouds
5:35 AM 12.2 °F -6.3 °F 8.6 °F 85% 29.74 in 10.0 mi North 20.7 mph 26.5 mph N/A   Mostly Cloudy
5:55 AM 12.2 °F -5.8 °F 6.8 °F 79% 29.74 in 10.0 mi North 19.6 mph 27.6 mph N/A   Mostly Cloudy
6:15 AM 10.4 °F -8.2 °F 6.8 °F 85% 29.75 in 10.0 mi North 19.6 mph 25.3 mph N/A   Clear
6:35 AM 10.4 °F -8.2 °F 5.0 °F 79% 29.76 in 10.0 mi North 19.6 mph 25.3 mph N/A   Clear
6:55 AM 8.6 °F -11.4 °F 3.2 °F 79% 29.77 in 10.0 mi North 21.9 mph 29.9 mph N/A   Clear
7:15 AM 8.6 °F -12.3 °F 1.4 °F 73% 29.80 in 10.0 mi North 24.2 mph 29.9 mph N/A   Clear
7:35 AM 8.6 °F -11.0 °F 1.4 °F 73% 29.81 in 10.0 mi North 20.7 mph 26.5 mph N/A   Clear
7:55 AM 6.8 °F -14.7 °F 1.4 °F 79% 29.82 in 10.0 mi North 24.2 mph 27.6 mph N/A   Mostly Cloudy
8:15 AM 6.8 °F -13.8 °F 1.4 °F 79% 29.85 in 10.0 mi North 21.9 mph 29.9 mph N/A   Mostly Cloudy
8:35 AM 6.8 °F -13.4 °F -0.4 °F 72% 29.87 in 10.0 mi North 20.7 mph 25.3 mph N/A   Scattered Clouds
8:55 AM 5.0 °F -16.2 °F -2.2 °F 72% 29.88 in 10.0 mi North 21.9 mph 28.8 mph N/A   Clear
9:15 AM 5.0 °F -15.2 °F -2.2 °F 72% 29.90 in 10.0 mi North 19.6 mph 25.3 mph N/A   Partly Cloudy
9:35 AM 5.0 °F -16.2 °F -2.2 °F 72% 29.92 in 10.0 mi North 21.9 mph 28.8 mph N/A   Clear
9:55 AM 3.2 °F -18.1 °F -2.2 °F 78% 29.94 in 10.0 mi North 20.7 mph 25.3 mph N/A   Clear
10:15 AM 1.4 °F -20.5 °F -4.0 °F 78% 29.95 in 10.0 mi North 20.7 mph 29.9 mph N/A   Clear
10:35 AM 1.4 °F -20.5 °F -5.8 °F 72% 29.97 in 10.0 mi North 20.7 mph 25.3 mph N/A   Clear
10:55 AM 1.4 °F -19.4 °F -7.6 °F 66% 29.99 in 10.0 mi North 18.4 mph 27.6 mph N/A   Clear
11:15 AM 1.4 °F -21.4 °F -5.8 °F 72% 30.02 in 10.0 mi North 23.0 mph 27.6 mph N/A   Clear
11:35 AM -0.4 °F -21.2 °F -7.6 °F 72% 30.03 in 10.0 mi North 17.3 mph 26.5 mph N/A   Clear
11:55 AM -0.4 °F -22.8 °F -7.6 °F 72% 30.04 in 10.0 mi North 20.7 mph 28.8 mph N/A   Clear
12:15 PM -0.4 °F -22.3 °F -7.6 °F 72% 30.05 in 10.0 mi North 19.6 mph - N/A   Clear
12:35 PM -0.4 °F -23.3 °F -7.6 °F 72% 30.06 in 10.0 mi North 21.9 mph 27.6 mph N/A   Clear
12:55 PM -0.4 °F -22.3 °F -9.4 °F 66% 30.08 in 10.0 mi North 19.6 mph - N/A   Clear
1:15 PM -0.4 °F -21.2 °F -9.4 °F 66% 30.08 in 10.0 mi North 17.3 mph 21.9 mph N/A   Clear
1:35 PM -0.4 °F -21.7 °F -9.4 °F 66% 30.08 in 10.0 mi North 18.4 mph 26.5 mph N/A   Clear
1:55 PM -0.4 °F -22.3 °F -9.4 °F 66% 30.10 in 10.0 mi North 19.6 mph 25.3 mph N/A   Clear
2:15 PM -0.4 °F -22.3 °F -9.4 °F 66% 30.11 in 10.0 mi North 19.6 mph - N/A   Scattered Clouds
2:35 PM -0.4 °F -23.3 °F -11.2 °F 60% 30.12 in 10.0 mi North 21.9 mph - N/A   Mostly Cloudy
2:55 PM -0.4 °F -22.8 °F -9.4 °F 66% 30.14 in 10.0 mi North 20.7 mph 24.2 mph N/A   Clear
3:15 PM -0.4 °F -21.2 °F -9.4 °F 66% 30.15 in 10.0 mi North 17.3 mph - N/A   Clear
3:35 PM -2.2 °F -24.1 °F -11.2 °F 66% 30.17 in 10.0 mi North 18.4 mph 26.5 mph N/A   Clear
3:55 PM -2.2 °F -23.5 °F -11.2 °F 66% 30.19 in 10.0 mi North 17.3 mph 23.0 mph N/A   Clear
4:15 PM -2.2 °F -21.5 °F - N/A% 30.21 in 10.0 mi North 13.8 mph - N/A   Clear
4:35 PM -2.2 °F -22.9 °F -13.0 °F 60% 30.22 in 10.0 mi North 16.1 mph - N/A   Clear
4:55 PM -4.0 °F -25.2 °F -13.0 °F 65% 30.24 in 10.0 mi North 16.1 mph 19.6 mph N/A   Partly Cloudy
5:15 PM -4.0 °F -24.5 °F -13.0 °F 65% 30.24 in 10.0 mi North 15.0 mph 20.7 mph N/A   Mostly Cloudy
5:35 PM -4.0 °F -23.7 °F -14.8 °F 60% 30.23 in 10.0 mi North 13.8 mph - N/A   Scattered Clouds
5:55 PM -4.0 °F -24.5 °F -13.0 °F 65% 30.24 in 10.0 mi North 15.0 mph - N/A   Partly Cloudy
6:15 PM -4.0 °F -21.2 °F -13.0 °F 65% 30.24 in 10.0 mi North 10.4 mph - N/A   Partly Cloudy
6:35 PM -4.0 °F -23.7 °F -14.8 °F 60% 30.26 in 10.0 mi North 13.8 mph - N/A   Clear
6:55 PM -4.0 °F -22.1 °F -16.6 °F 55% 30.26 in 10.0 mi North 11.5 mph - N/A   Clear
7:15 PM -4.0 °F -20.2 °F -14.8 °F 60% 30.26 in 10.0 mi North 9.2 mph - N/A   Partly Cloudy
7:35 PM -4.0 °F -20.2 °F -14.8 °F 60% 30.26 in 9.0 mi North 9.2 mph - N/A Snow Light Snow
7:55 PM -4.0 °F -20.2 °F -14.8 °F 60% 30.28 in 7.0 mi North 9.2 mph - N/A Snow Light Snow
8:15 PM -4.0 °F -19.0 °F -13.0 °F 65% 30.28 in 7.0 mi North 8.1 mph - N/A Snow Light Snow
8:35 PM -4.0 °F -19.0 °F -13.0 °F 65% 30.29 in 6.0 mi NNW 8.1 mph - N/A Snow Light Snow
8:55 PM -4.0 °F -16.3 °F - N/A% 30.31 in 3.0 mi NNW 5.8 mph - N/A Snow Light Snow
9:15 PM -4.0 °F -12.4 °F -11.2 °F 71% 30.31 in 4.0 mi NW 3.5 mph - N/A Snow Light Snow
9:35 PM -4.0 °F - -11.2 °F 71% 30.32 in 5.0 mi Calm Calm - N/A Snow Light Snow
9:55 PM -4.0 °F -12.4 °F -11.2 °F 71% 30.32 in 5.0 mi SW 3.5 mph - N/A Snow Light Snow
10:15 PM -4.0 °F - -9.4 °F 78% 30.31 in 7.0 mi Calm Calm - N/A Snow Light Snow
10:35 PM -2.2 °F -12.5 °F -9.4 °F 71% 30.30 in 5.0 mi South 4.6 mph - N/A   Haze
10:55 PM -2.2 °F -12.5 °F -9.4 °F 71% 30.30 in 8.0 mi South 4.6 mph - N/A   Scattered Clouds
11:15 PM -4.0 °F -16.3 °F -9.4 °F 78% 30.28 in 9.0 mi South 5.8 mph - N/A   Mostly Cloudy
11:35 PM -4.0 °F -16.3 °F -9.4 °F 78% 30.28 in 10.0 mi South 5.8 mph - N/A   Mostly Cloudy
11:55 PM -2.2 °F -15.6 °F -9.4 °F 71% 30.28 in 10.0 mi South 6.9 mph - N/A   Mostly Cloudy